{"data":{"norad_id":48667,"epoch":"2026-09-19T16:51:25.015968Z","epoch_age_seconds":106157,"freshness":"FRESH","line1":"1 48667U 21044AF  26262.70237287  .00000184  00000+0  17697-4 0  9992","line2":"2 48667  53.1602 292.5183 0001335  77.0639 283.0511 15.31700311293527","mean_motion":15.31700311,"eccentricity":0.0001335,"inclination_deg":53.1602,"raan_deg":292.5183,"arg_perigee_deg":77.0639,"mean_anomaly_deg":283.0511,"bstar":1.7697e-5,"rev_number":29352,"period_min":94.013168872432,"perigee_km":469.82474319589,"apogee_km":471.65339310609,"semimajor_km":6848.876068151,"source":"CELESTRAK","updated_at":"2026-09-20T09:00:39.240579Z"}}